カタログに戻る

GAOFEN 3 DEB

運用中SSO
NORAD 42680·DEBRIS·🇨🇳 China

打ち上げ Aug 9, 2016 から Taiyuan Satellite Launch Center

Loading…

次のパス (今後24時間)

TLE

最新Source: Space-Track

元期: Sep 14, 2026, 07:45 UTC

1 42680U 16049E   26257.32358547  .00001021  00000-0  26263-3 0  9995
2 42680  98.4245 273.2550 0015525 190.7616 169.3249 14.52231024529280

AllMySatでGAOFEN 3 DEBをリアルタイム追跡

Download on the App Store